This is the latest recevied weather packets stored in our database for station/object KR4BRU. If no packets are shown the sender has not sent any weather packets the latest 10 day(s).
| Time | Temp. | Humidity | Pressure | Rain* | Wind** | Luminosity | Snow |
|---|---|---|---|---|---|---|---|
| 1777877588 | 10.56° C | 77% | 1013.8 hPa | 0 mm | - | 0 W/m² | - |
| 1777876988 | 10.56° C | 77% | 1013.8 hPa | 0 mm | - | 0 W/m² | - |
| 1777876383 | 10.56° C | 76% | 1013.8 hPa | 0 mm | - | 0 W/m² | - |
| 1777875781 | 10.56° C | 76% | 1013.8 hPa | 0 mm | - | 0 W/m² | - |
| 1777875180 | 10.56° C | 76% | 1014 hPa | 0 mm | - | 0 W/m² | - |
| 1777874578 | 10° C | 77% | 1014.1 hPa | 0 mm | - | 0 W/m² | - |
| 1777873974 | 10° C | 74% | 1014.1 hPa | 0 mm | - | 0 W/m² | - |
| 1777873368 | 10° C | 72% | 1014.2 hPa | 0 mm | - | 0 W/m² | - |
| 1777872766 | 10° C | 71% | 1014.1 hPa | 0 mm | - | 0 W/m² | - |
| 1777872162 | 10.56° C | 70% | 1014.2 hPa | 0 mm | - | 0 W/m² | - |
| 1777871561 | 10.56° C | 69% | 1014 hPa | 0 mm | - | 0 W/m² | - |
| 1777870961 | 11.11° C | 67% | 1014 hPa | 0 mm | - | 0 W/m² | - |
| 1777870358 | 11.11° C | 67% | 1014.3 hPa | 0 mm | - | 0 W/m² | - |
| 1777869754 | 11.67° C | 67% | 1014.4 hPa | 0 mm | - | 0 W/m² | - |
| 1777869153 | 11.67° C | 65% | 1014.4 hPa | 0 mm | - | 0 W/m² | - |
| 1777868553 | 11.67° C | 64% | 1014.3 hPa | 0 mm | - | 0 W/m² | - |
| 1777867951 | 11.67° C | 64% | 1014.4 hPa | 0 mm | - | 0 W/m² | - |
| 1777867352 | 12.22° C | 63% | 1014.4 hPa | 0 mm | - | 0 W/m² | - |
| 1777866751 | 12.22° C | 62% | 1014.1 hPa | 0 mm | - | 0 W/m² | - |
| 1777866145 | 12.22° C | 61% | 1014.3 hPa | 0 mm | - | 0 W/m² | - |
| 1777865540 | 12.22° C | 60% | 1014.2 hPa | 0 mm | - | 0 W/m² | - |
| 1777864940 | 12.22° C | 59% | 1014.3 hPa | 0 mm | - | 0 W/m² | - |
| 1777864339 | 12.22° C | 58% | 1014.1 hPa | 0 mm | - | 0 W/m² | - |
| 1777863738 | 12.22° C | 57% | 1014 hPa | 0 mm | - | 0 W/m² | - |
| 1777863137 | 12.78° C | 57% | 1013.9 hPa | 0 mm | - | 0 W/m² | - |
* Rain latest hour (hover to see other rain measurements)
** Current wind speed in m/s (hover to see current wind gust speed)